EW4725 Weather Reports


Display with metric or nautical units.
time (UTC)temp
F
wind
direction
speed
MPH
gust
MPH
rain 1hr
in
rain 24hr
in
rain mn
in
humidity
%
barometer
mb
20260504183315 67 260 4.0 10.0 0.00 0.00 0.00 53 1015.9
20260504182815 67 260 5.0 8.0 0.00 0.00 0.00 53 1016.0
20260504182317 67 260 5.0 9.0 0.00 0.00 0.00 51 1016.0
20260504181817 67 238 7.0 10.0 0.00 0.00 0.00 55 1016.1
20260504181315 66 305 6.0 9.0 0.00 0.00 0.00 55 1016.1
20260504180817 66 283 5.0 10.0 0.00 0.00 0.00 56 1016.0
20260504180317 66 260 8.0 10.0 0.00 0.00 0.00 56 1016.0
20260504175817 67 260 9.0 15.0 0.00 0.00 0.00 56 1016.1
20260504175316 66 305 3.0 5.0 0.00 0.00 0.00 55 1016.0
20260504174817 66 260 7.0 11.0 0.00 0.00 0.00 56 1016.0
20260504174337 66 260 6.0 10.0 0.00 0.00 0.00 54 1015.9
20260504173817 66 305 5.0 10.0 0.00 0.00 0.00 55 1015.9
20260504173317 66 260 6.0 10.0 0.00 0.00 0.00 57 1015.8
20260504172817 65 283 6.0 12.0 0.00 0.00 0.00 55 1015.8
20260504172337 65 260 4.0 6.0 0.00 0.00 0.00 58 1015.7
20260504171818 65 260 6.0 10.0 0.00 0.00 0.00 59 1015.8
20260504171317 65 238 6.0 8.0 0.00 0.00 0.00 60 1015.7
20260504170817 65 283 6.0 8.0 0.00 0.00 0.00 59 1015.7
20260504170317 64 215 5.0 7.0 0.00 0.00 0.00 61 1015.8
20260504160317 63 283 5.0 7.0 0.00 0.00 0.00 64 1015.5
20260504150817 60 260 3.0 4.0 0.00 0.00 0.00 73 1015.3
20260504150337 60 260 2.0 5.0 0.00 0.00 0.00 74 1015.3
20260504141317 58 260 3.0 4.0 0.00 0.00 0.00 76 1015.0
20260504140817 58 283 4.0 6.0 0.00 0.00 0.00 76 1015.0
20260504140317 58 260 4.0 6.0 0.00 0.00 0.00 75 1015.0
20260504130817 58 283 1.0 2.0 0.00 0.00 0.00 74 1014.7
20260504130317 58 260 4.0 7.0 0.00 0.00 0.00 74 1014.9
20260504120317 58 238 3.0 6.0 0.00 0.00 0.00 78 1014.6
20260504110316 58 283 3.0 4.0 0.00 0.00 0.00 79 1014.5
20260504100316 57 305 1.0 2.0 0.00 0.00 0.00 81 1014.5
20260504081816 59 260 1.0 3.0 0.00 0.00 0.00 78 1015.3
20260504081316 59 260 3.0 4.0 0.00 0.00 0.00 78 1015.7
20260504080816 59 283 3.0 3.0 0.00 0.00 0.00 78 1015.4
20260504080316 59 260 2.0 3.0 0.00 0.00 0.00 78 1015.4
20260504070337 59 260 5.0 6.0 0.00 0.00 0.00 75 1015.5
20260504050316 60 283 3.0 4.0 0.00 0.00 0.00 78 1015.0
20260504045816 60 260 3.0 5.0 0.00 0.00 0.00 79 1015.0
20260504045316 60 283 3.0 6.0 0.00 0.00 0.00 78 1015.0
20260504044816 60 260 3.0 5.0 0.00 0.00 0.00 78 1015.0
20260504044316 60 260 4.0 5.0 0.00 0.00 0.00 77 1015.0
20260504043836 60 260 3.0 7.0 0.00 0.00 0.00 77 1015.0
20260504043316 60 260 3.0 5.0 0.00 0.00 0.00 77 1014.9
20260504042816 60 260 4.0 6.0 0.00 0.00 0.00 76 1014.8
20260504042316 60 283 3.0 5.0 0.00 0.00 0.00 76 1015.0
20260504041836 60 260 2.0 4.0 0.00 0.00 0.00 76 1014.8
20260504041336 60 260 3.0 4.0 0.00 0.00 0.00 76 1014.7
20260504040816 60 283 4.0 5.0 0.00 0.00 0.00 76 1014.7
20260504040316 60 283 5.0 7.0 0.00 0.00 0.00 76 1014.7
20260504035816 60 260 5.0 8.0 0.00 0.00 0.00 75 1014.5
20260504035336 60 260 4.0 7.0 0.00 0.00 0.00 75 1014.4
20260504034816 60 283 1.0 2.0 0.00 0.00 0.00 75 1014.4
20260504034316 60 283 2.0 4.0 0.00 0.00 0.00 75 1014.6
20260504033816 60 260 2.0 3.0 0.00 0.00 0.00 74 1014.4
20260504033316 60 283 6.0 9.0 0.00 0.00 0.00 74 1014.4
20260504032856 60 305 6.0 9.0 0.00 0.00 0.00 74 1014.3
20260504032316 60 260 5.0 9.0 0.00 0.00 0.00 74 1014.2
20260504031816 60 283 5.0 8.0 0.00 0.00 0.00 74 1014.2
20260504031336 60 283 5.0 7.0 0.00 0.00 0.00 75 1014.1
20260504030816 60 260 2.0 2.0 0.00 0.00 0.00 75 1014.0
20260504030316 60 283 6.0 9.0 0.00 0.00 0.00 75 1013.9
20260504025816 61 260 5.0 7.0 0.00 0.00 0.00 75 1013.9
20260504025316 60 283 6.0 9.0 0.00 0.00 0.00 75 1014.0
20260504024816 60 283 6.0 10.0 0.00 0.00 0.00 75 1013.8
20260504024316 61 283 7.0 11.0 0.00 0.00 0.00 75 1013.8
20260504023816 61 260 8.0 10.0 0.00 0.00 0.00 75 1013.8
20260504023316 61 260 6.0 10.0 0.00 0.00 0.00 74 1013.8
20260504022816 61 260 8.0 13.0 0.00 0.00 0.00 74 1013.8
20260504022316 61 260 5.0 6.0 0.00 0.00 0.00 74 1013.8
20260504021836 61 260 7.0 10.0 0.00 0.00 0.00 74 1013.7
20260504021316 61 260 7.0 11.0 0.00 0.00 0.00 74 1013.6
20260504020816 61 260 6.0 8.0 0.00 0.00 0.00 74 1013.6
20260504020417 61 283 6.0 8.0 0.00 0.00 0.00 73 1013.3
20260504015816 62 260 6.0 9.0 0.00 0.00 0.00 72 1013.5
20260504015316 62 283 5.0 6.0 0.00 0.00 0.00 71 1013.4
20260504014816 62 260 6.0 9.0 0.00 0.00 0.00 71 1013.3
20260504014316 62 283 5.0 6.0 0.00 0.00 0.00 71 1013.3
20260504013816 62 260 5.0 6.0 0.00 0.00 0.00 71 1013.3
20260504013316 62 283 7.0 11.0 0.00 0.00 0.00 70 1013.2
20260504012836 62 260 5.0 8.0 0.00 0.00 0.00 70 1013.1
20260504012316 63 283 8.0 12.0 0.00 0.00 0.00 70 1013.2
20260504011836 63 260 6.0 8.0 0.00 0.00 0.00 70 1013.3
20260504011316 63 260 4.0 10.0 0.00 0.00 0.00 70 1013.2
20260504010836 63 260 5.0 7.0 0.00 0.00 0.00 70 1013.1
20260504010316 63 260 6.0 10.0 0.00 0.00 0.00 70 1013.1
20260504005816 63 283 5.0 9.0 0.00 0.00 0.00 71 1013.1
20260504005316 63 283 7.0 9.0 0.00 0.00 0.00 71 1013.0
20260504004816 63 283 5.0 8.0 0.00 0.00 0.00 71 1013.0
20260504004316 63 238 7.0 10.0 0.00 0.00 0.00 71 1013.1
20260504003836 63 283 4.0 5.0 0.00 0.00 0.00 72 1013.0
20260504003316 63 260 4.0 7.0 0.00 0.00 0.00 72 1012.9
20260504002816 63 283 5.0 7.0 0.00 0.00 0.00 72 1013.0
20260504002336 64 260 7.0 11.0 0.00 0.00 0.00 71 1013.0
20260504001816 64 283 4.0 6.0 0.00 0.00 0.00 72 1013.0
20260504001316 64 260 4.0 8.0 0.00 0.00 0.00 72 1012.9
20260504000816 64 283 3.0 6.0 0.00 0.00 0.00 72 1012.8
20260504000336 64 283 6.0 11.0 0.00 0.00 0.00 71 1012.8
20260503235816 64 305 7.0 12.0 0.00 0.00 0.00 71 1012.8
20260503235316 64 260 9.0 14.0 0.00 0.00 0.00 71 1012.6
20260503234816 64 305 5.0 6.0 0.00 0.00 0.00 70 1012.7
20260503234316 64 260 5.0 8.0 0.00 0.00 0.00 70 1012.8
20260503233816 64 283 6.0 9.0 0.00 0.00 0.00 69 1012.5
20260503233316 64 260 6.0 8.0 0.00 0.00 0.00 68 1012.6
20260503232816 64 260 6.0 8.0 0.00 0.00 0.00 67 1012.7
20260503232316 65 283 8.0 12.0 0.00 0.00 0.00 66 1012.9
20260503231816 65 305 8.0 12.0 0.00 0.00 0.00 66 1012.8
20260503231316 64 283 4.0 8.0 0.00 0.00 0.00 67 1013.0
20260503230816 64 305 7.0 11.0 0.00 0.00 0.00 65 1012.9
20260503230316 65 283 7.0 11.0 0.00 0.00 0.00 66 1013.1
20260503225836 65 283 4.0 6.0 0.00 0.00 0.00 64 1013.0
20260503225336 65 305 6.0 10.0 0.00 0.00 0.00 64 1013.1
20260503224816 65 283 6.0 8.0 0.00 0.00 0.00 63 1013.2
20260503224315 65 260 5.0 13.0 0.00 0.00 0.00 63 1013.2
20260503223816 65 283 6.0 10.0 0.00 0.00 0.00 62 1013.2
20260503223316 65 283 8.0 11.0 0.00 0.00 0.00 61 1013.3
20260503222816 65 305 5.0 7.0 0.00 0.00 0.00 60 1013.3
20260503222316 65 305 5.0 11.0 0.00 0.00 0.00 61 1013.4
20260503221815 65 283 4.0 9.0 0.00 0.00 0.00 60 1013.4
20260503221336 65 283 4.0 7.0 0.00 0.00 0.00 60 1013.4
20260503220815 65 283 5.0 6.0 0.00 0.00 0.00 60 1013.4
20260503220315 65 260 6.0 9.0 0.00 0.00 0.00 60 1013.5
20260503215816 65 283 8.0 12.0 0.00 0.00 0.00 59 1013.5
20260503215315 66 260 5.0 9.0 0.00 0.00 0.00 59 1013.6
20260503214816 66 283 4.0 5.0 0.00 0.00 0.00 60 1013.6
20260503214316 66 283 6.0 9.0 0.00 0.00 0.00 60 1013.5
20260503213836 66 305 7.0 9.0 0.00 0.00 0.00 60 1013.6
20260503213336 66 283 4.0 6.0 0.00 0.00 0.00 58 1013.6
20260503212816 67 260 6.0 10.0 0.00 0.00 0.00 58 1013.5
20260503212315 67 260 4.0 12.0 0.00 0.00 0.00 59 1013.6
20260503211815 67 260 6.0 7.0 0.00 0.00 0.00 58 1013.6
20260503211315 67 260 5.0 9.0 0.00 0.00 0.00 57 1013.6
20260503210815 67 305 5.0 7.0 0.00 0.00 0.00 57 1013.7
20260503210316 68 238 5.0 8.0 0.00 0.00 0.00 56 1013.7
20260503205815 68 260 6.0 8.0 0.00 0.00 0.00 56 1013.6
20260503205315 68 260 3.0 7.0 0.00 0.00 0.00 57 1013.6
20260503204815 68 238 3.0 5.0 0.00 0.00 0.00 58 1013.6
20260503204315 67 260 3.0 6.0 0.00 0.00 0.00 58 1013.5
20260503203816 68 283 5.0 9.0 0.00 0.00 0.00 57 1013.6
20260503203316 67 260 5.0 7.0 0.00 0.00 0.00 59 1013.6
20260503202815 68 125 2.0 3.0 0.00 0.00 0.00 59 1013.7
20260503202315 68 260 4.0 7.0 0.00 0.00 0.00 59 1013.7
20260503201816 68 170 5.0 7.0 0.00 0.00 0.00 59 1013.7
20260503201315 67 283 5.0 7.0 0.00 0.00 0.00 59 1013.7
20260503200816 68 260 7.0 10.0 0.00 0.00 0.00 59 1013.8
20260503200316 67 260 4.0 6.0 0.00 0.00 0.00 59 1013.8
20260503195815 68 283 5.0 8.0 0.00 0.00 0.00 57 1013.9
20260503195316 69 148 3.0 5.0 0.00 0.00 0.00 56 1013.9
20260503194855 69 170 1.0 3.0 0.00 0.00 0.00 56 1013.9
20260503194315 69 305 1.0 1.0 0.00 0.00 0.00 56 1014.0
20260503193815 68 148 2.0 2.0 0.00 0.00 0.00 56 1014.1
20260503193315 69 148 2.0 3.0 0.00 0.00 0.00 57 1014.0
20260503192815 68 215 2.0 3.0 0.00 0.00 0.00 57 1014.1
20260503192315 68 148 3.0 5.0 0.00 0.00 0.00 56 1014.1
20260503191815 69 148 4.0 6.0 0.00 0.00 0.00 56 1014.2
20260503191315 68 0.0 1.0 0.00 0.00 0.00 58 1014.2
20260503190815 68 148 1.0 10.0 0.00 0.00 0.00 57 1014.3
20260503190316 68 215 5.0 7.0 0.00 0.00 0.00 58 1014.3
20260503185816 68 260 3.0 6.0 0.00 0.00 0.00 59 1014.4
20260503185315 67 0.0 1.0 0.00 0.00 0.00 59 1014.4
20260503184855 67 125 1.0 2.0 0.00 0.00 0.00 60 1014.5
20260503184316 67 283 4.0 6.0 0.00 0.00 0.00 59 1014.5
20260503183815 67 148 2.0 4.0 0.00 0.00 0.00 60 1014.5